Tracking 22440 objects as of 27-Feb-2021
HD Live streaming from Space Station
objects crossing your sky now

FREGAT DEB

Track FREGAT DEB now!
10-day predictions


NORAD ID: 45837
Int'l Code: 2011-037BX
Perigee: 725.7 km
Apogee: 4,292.9 km
Inclination: 51.7 °
Period: 138.8 minutes
Semi major axis: 8880 km
RCS: Unknown
Launch date: July 18, 2011
Source: Commonwealth of Independent States (former USSR) (CIS)
Launch site: TYURATAM MISSILE AND SPACE COMPLEX (TTMTR)

Note: This is SATELLITE DEBRIS
aabbcc
Your satellite tracking list
Your tracking list is empty




NASA's NSSDC Master Catalog

Two Line Element Set (TLE):
1 45837U 11037BX  21057.49880038 -.00004122  00000-0 -83867-2 0  9999
2 45837  51.7138 198.8029 2008508  72.9380 308.0708 10.37443399 27876
Source of the keplerian elements: AFSPC